• en France
  • Liste des pays
  • À 7 jours
  • Température de l'eau
  • Carte satellitaire
  • Carte météo
  • Widgets météo
  • user-avatar
    Se connecter

    Météo par heure à Andrianovka

    Ce jour, 23 Juillet, Lundi

    Heure Température Précipitation Vent Pression Humidité
    00:00 +17°C° 0 mm 5 m/s 743 mmHg 90%
    01:00 +18°C° 0 mm 4 m/s 743 mmHg 90%
    02:00 +18°C° 0 mm 4 m/s 743 mmHg 91%
    03:00 +17°C° 0 mm 4 m/s 743 mmHg 91%
    04:00 +17°C° 0 mm 4 m/s 743 mmHg 91%
    05:00 +17°C° 0 mm 4 m/s 743 mmHg 90%
    06:00 +17°C° 0 mm 4 m/s 743 mmHg 90%
    07:00 +17°C° 0,1 mm 5 m/s 743 mmHg 88%
    08:00 +19°C° 0,1 mm 5 m/s 744 mmHg 86%
    09:00 +19°C° 0,1 mm 5 m/s 744 mmHg 84%
    10:00 +21°C° 0,1 mm 5 m/s 744 mmHg 80%
    11:00 +22°C° 0,1 mm 5 m/s 744 mmHg 77%
    12:00 +25°C° 0,1 mm 5 m/s 744 mmHg 73%
    13:00 +25°C° 0,2 mm 5 m/s 744 mmHg 73%
    14:00 +25°C° 0,2 mm 5 m/s 744 mmHg 73%
    15:00 +26°C° 0,2 mm 5 m/s 744 mmHg 72%
    16:00 +25°C° 0,5 mm 5 m/s 744 mmHg 76%
    17:00 +25°C° 0,5 mm 5 m/s 743 mmHg 79%
    18:00 +23°C° 0,5 mm 5 m/s 743 mmHg 82%
    19:00 +22°C° 0,1 mm 5 m/s 744 mmHg 84%
    20:00 +21°C° 0,1 mm 5 m/s 744 mmHg 87%
    21:00 +20°C° 0,1 mm 5 m/s 744 mmHg 90%
    22:00 +20°C° 0 mm 5 m/s 744 mmHg 89%
    23:00 +19°C° 0 mm 5 m/s 744 mmHg 89%

    Demain, 24 Juillet, Mardi

    Heure Température Précipitation Vent Pression Humidité
    00:00 +19°C° 0 mm 4 m/s 744 mmHg 89%
    01:00 +18°C° 0 mm 4 m/s 744 mmHg 89%
    02:00 +18°C° 0 mm 4 m/s 744 mmHg 89%
    03:00 +18°C° 0 mm 4 m/s 745 mmHg 89%
    04:00 +18°C° 0,1 mm 4 m/s 745 mmHg 89%
    05:00 +19°C° 0,1 mm 4 m/s 745 mmHg 88%
    06:00 +19°C° 0,1 mm 4 m/s 745 mmHg 88%
    07:00 +20°C° 0,1 mm 4 m/s 745 mmHg 85%
    08:00 +21°C° 0,1 mm 4 m/s 746 mmHg 81%
    09:00 +23°C° 0,1 mm 4 m/s 746 mmHg 77%
    10:00 +25°C° 0,1 mm 4 m/s 746 mmHg 74%
    11:00 +26°C° 0,1 mm 4 m/s 746 mmHg 71%
    12:00 +27°C° 0,1 mm 4 m/s 746 mmHg 68%
    13:00 +28°C° 0,4 mm 4 m/s 746 mmHg 68%
    14:00 +28°C° 0,4 mm 4 m/s 746 mmHg 68%
    15:00 +28°C° 0,4 mm 4 m/s 746 mmHg 68%
    16:00 +27°C° 0,3 mm 4 m/s 747 mmHg 73%
    17:00 +26°C° 0,3 mm 4 m/s 747 mmHg 78%
    18:00 +25°C° 0,3 mm 3 m/s 747 mmHg 83%
    19:00 +24°C° 0 mm 3 m/s 747 mmHg 85%
    20:00 +24°C° 0 mm 3 m/s 747 mmHg 87%
    21:00 +23°C° 0 mm 2 m/s 748 mmHg 90%
    22:00 +22°C° 0 mm 3 m/s 748 mmHg 89%
    23:00 +21°C° 0 mm 3 m/s 748 mmHg 87%

    Après-demain, 25 Juillet, Mercredi

    Heure Température Précipitation Vent Pression Humidité
    00:00 +21°C° 0 mm 3 m/s 748 mmHg 86%
    01:00 +21°C° 0 mm 3 m/s 748 mmHg 82%
    02:00 +20°C° 0 mm 3 m/s 748 mmHg 79%
    03:00 +20°C° 0 mm 3 m/s 748 mmHg 75%
    04:00 +19°C° 0 mm 3 m/s 748 mmHg 74%
    05:00 +19°C° 0 mm 3 m/s 749 mmHg 74%
    06:00 +19°C° 0 mm 3 m/s 749 mmHg 73%
    07:00 +20°C° 0 mm 4 m/s 749 mmHg 70%
    08:00 +20°C° 0 mm 4 m/s 749 mmHg 68%
    09:00 +21°C° 0 mm 4 m/s 749 mmHg 66%
    10:00 +22°C° 0 mm 4 m/s 749 mmHg 62%
    11:00 +25°C° 0 mm 4 m/s 750 mmHg 59%
    12:00 +26°C° 0 mm 5 m/s 750 mmHg 56%
    13:00 +27°C° 0 mm 5 m/s 750 mmHg 56%
    14:00 +27°C° 0 mm 5 m/s 750 mmHg 56%
    15:00 +27°C° 0 mm 4 m/s 750 mmHg 56%
    16:00 +27°C° 0 mm 4 m/s 750 mmHg 60%
    17:00 +26°C° 0 mm 4 m/s 749 mmHg 63%
    18:00 +26°C° 0 mm 4 m/s 749 mmHg 66%
    19:00 +25°C° 0 mm 4 m/s 750 mmHg 67%
    20:00 +23°C° 0 mm 4 m/s 750 mmHg 69%
    21:00 +22°C° 0 mm 4 m/s 750 mmHg 70%
    22:00 +22°C° 0 mm 4 m/s 750 mmHg 69%
    23:00 +22°C° 0 mm 4 m/s 750 mmHg 69%

    26 Juillet, Jeudi

    Heure Température Précipitation Vent Pression Humidité
    00:00 +21°C° 0 mm 4 m/s 750 mmHg 69%
    01:00 +22°C° 0 mm 4 m/s 750 mmHg 68%
    02:00 +22°C° 0 mm 5 m/s 750 mmHg 66%
    03:00 +22°C° 0 mm 5 m/s 750 mmHg 65%
    04:00 +22°C° 0 mm 5 m/s 750 mmHg 66%
    05:00 +22°C° 0 mm 5 m/s 750 mmHg 66%
    06:00 +22°C° 0 mm 4 m/s 751 mmHg 67%
    07:00 +22°C° 0 mm 5 m/s 751 mmHg 67%
    08:00 +23°C° 0 mm 5 m/s 751 mmHg 66%
    09:00 +23°C° 0 mm 5 m/s 751 mmHg 66%
    10:00 +26°C° 0 mm 5 m/s 751 mmHg 63%
    11:00 +27°C° 0 mm 5 m/s 751 mmHg 59%
    12:00 +29°C° 0 mm 5 m/s 751 mmHg 56%
    13:00 +29°C° 0 mm 5 m/s 751 mmHg 56%
    14:00 +29°C° 0 mm 4 m/s 751 mmHg 56%
    15:00 +30°C° 0 mm 4 m/s 751 mmHg 56%
    16:00 +29°C° 0 mm 4 m/s 752 mmHg 60%
    17:00 +28°C° 0 mm 3 m/s 752 mmHg 64%
    18:00 +28°C° 0 mm 3 m/s 752 mmHg 68%
    19:00 +27°C° 0 mm 3 m/s 752 mmHg 70%
    20:00 +26°C° 0 mm 4 m/s 752 mmHg 71%
    21:00 +26°C° 0 mm 4 m/s 752 mmHg 72%
    22:00 +25°C° 0 mm 4 m/s 752 mmHg 72%
    23:00 +23°C° 0 mm 4 m/s 752 mmHg 71%

    27 Juillet, Vendredi

    Heure Température Précipitation Vent Pression Humidité
    00:00 +23°C° 0 mm 4 m/s 752 mmHg 71%
    01:00 +22°C° 0 mm 4 m/s 752 mmHg 72%
    02:00 +21°C° 0 mm 3 m/s 753 mmHg 74%
    03:00 +21°C° 0 mm 3 m/s 753 mmHg 75%
    04:00 +20°C° 0 mm 3 m/s 753 mmHg 77%
    05:00 +20°C° 0 mm 3 m/s 753 mmHg 78%
    06:00 +20°C° 0 mm 3 m/s 753 mmHg 80%
    07:00 +22°C° 0 mm 3 m/s 753 mmHg 75%
    08:00 +24°C° 0 mm 3 m/s 753 mmHg 71%
    09:00 +26°C° 0 mm 3 m/s 753 mmHg 67%
    10:00 +27°C° 0 mm 4 m/s 753 mmHg 61%
    11:00 +29°C° 0 mm 4 m/s 753 mmHg 55%
    12:00 +30°C° 0 mm 4 m/s 753 mmHg 49%
    13:00 +32°C° 0 mm 4 m/s 753 mmHg 47%
    14:00 +32°C° 0 mm 4 m/s 752 mmHg 46%
    15:00 +32°C° 0 mm 4 m/s 752 mmHg 45%
    16:00 +32°C° 0 mm 4 m/s 752 mmHg 50%
    17:00 +30°C° 0 mm 4 m/s 752 mmHg 54%
    18:00 +29°C° 0 mm 3 m/s 752 mmHg 59%
    19:00 +28°C° 0 mm 3 m/s 752 mmHg 63%
    20:00 +26°C° 0 mm 3 m/s 752 mmHg 68%
    21:00 +24°C° 0 mm 3 m/s 752 mmHg 72%
    22:00 +24°C° 0 mm 3 m/s 752 mmHg 73%
    23:00 +22°C° 0 mm 3 m/s 752 mmHg 74%

    28 Juillet, Samedi

    Heure Température Précipitation Vent Pression Humidité
    00:00 +21°C° 0 mm 3 m/s 752 mmHg 76%
    01:00 +21°C° 0 mm 3 m/s 752 mmHg 77%
    02:00 +20°C° 0 mm 3 m/s 752 mmHg 77%
    03:00 +20°C° 0 mm 3 m/s 752 mmHg 78%
    04:00 +20°C° 0 mm 3 m/s 752 mmHg 79%
    05:00 +20°C° 0 mm 3 m/s 753 mmHg 80%
    06:00 +20°C° 0 mm 3 m/s 753 mmHg 80%
    07:00 +22°C° 0 mm 3 m/s 753 mmHg 75%
    08:00 +25°C° 0 mm 3 m/s 753 mmHg 70%
    09:00 +27°C° 0 mm 3 m/s 753 mmHg 65%
    10:00 +28°C° 0 mm 3 m/s 752 mmHg 59%
    11:00 +30°C° 0 mm 4 m/s 752 mmHg 52%
    12:00 +32°C° 0 mm 4 m/s 752 mmHg 46%
    13:00 +32°C° 0 mm 4 m/s 752 mmHg 44%
    14:00 +33°C° 0 mm 4 m/s 752 mmHg 43%
    15:00 +33°C° 0 mm 4 m/s 752 mmHg 42%
    16:00 +31°C° 0 mm 3 m/s 752 mmHg 46%
    17:00 +31°C° 0 mm 3 m/s 752 mmHg 50%
    18:00 +30°C° 0 mm 3 m/s 751 mmHg 54%
    19:00 +28°C° 0 mm 3 m/s 752 mmHg 59%
    20:00 +27°C° 0 mm 3 m/s 752 mmHg 63%
    21:00 +25°C° 0 mm 3 m/s 752 mmHg 67%
    22:00 +24°C° 0 mm 3 m/s 752 mmHg 70%
    23:00 +24°C° 0 mm 3 m/s 752 mmHg 72%
    Voir plus